Regional Weather Roundup
Issued by NWS Newport/Morehead, NC

Current Version | Previous Version | Text Only | Print | Product List | Glossary Off
Versions: 1 2 3 4 5 6 7 8 9 10 11 12 13 14 15 16 17 18 19 20 21 22 23 24 25 26 27 28 29 30 31 32 33 34 35 36 37 38 39 40 41 42 43 44 45 46 47 48 49 50
923 ASUS42 KMHX 091124 RWRMHX WEATHER ROUNDUP FOR EASTERN NORTH CAROLINA NATIONAL WEATHER SERVICE NEWPORT/MOREHEAD CITY NC 600 AM EST FRI DEC 09 2016 NOTE: "FAIR" INDICATES FEW OR NO CLOUDS BELOW 12,000 FEET WITH NO SIGNIFICANT WEATHER AND/OR OBSTRUCTIONS TO VISIBILITY NCZ015>017-031-032-045>047-102-103-091200- NORTH COAST CITY SKY/WX TMP DP RH WIND PRES REMARKS EDENTON CLEAR 33 24 70 CALM 30.29R ELIZABETH CITY CLEAR 29 21 72 W5 30.27R KITTY HAWK SUNNY 37 24 60 NW9G17 30.24R MANTEO CLEAR 37 21 53 N7G20 30.26R $$ NCZ045>047-081-094-103-104-091200- CENTRAL COAST CITY SKY/WX TMP DP RH WIND PRES REMARKS FRISCO CLEAR 41 24 51 VRB7G17 30.23R $$ NCZ095-097-098-100-101-091200- SOUTHERN COAST CITY SKY/WX TMP DP RH WIND PRES REMARKS BEAUFORT CLEAR 37 23 56 N12 30.27R CEDAR ISLAND NOT AVBL JACKSONVILLE CLEAR 35 19 52 N12 30.29R PINEY ISLAND SUNNY N/A N/A N/A N17G26 30.26R WILMINGTON CLEAR 35 20 54 N8 30.30R $$ NCZ011>013-027>030-043-044-078>080-089-090>093-098-091200- COASTAL PLAIN CITY SKY/WX TMP DP RH WIND PRES REMARKS AHOSKIE PTCLDY 29 18 62 CALM 30.30R CLINTON CLEAR 32 23 69 NW3 30.33R ELIZABETHTOWN CLEAR 33 21 62 N5 30.32R GOLDSBORO CLEAR 33 16 50 NW6 30.29R GREENVILLE CLEAR 32 19 59 CALM 30.31R HAVELOCK CLEAR 38 21 50 N15 30.28R KENANSVILLE CLEAR 30 21 69 NW3 30.32R KINSTON CLEAR 31 20 63 CALM 30.32R NEW BERN CLEAR 35 19 52 NW9 30.30R RICHLANDS CLEAR 32 21 64 VRB5 30.31R ROCKY MOUNT CLEAR 32 18 56 NW6 30.31R WASHINGTON PTCLDY 30 21 67 NW3 30.30R WHITEVILLE CLEAR 34 23 64 CALM 30.32R $$ AMZ130-135-150-152-154-156-158-170-250-252-270-ANZ085-086-088-633-658-670-091200- MARINE OBSERVATIONS STATION/POSITION TIME TEMP WIND PRES WAVE SWELL AIR SEA DIR/SP/G HT/PER HT/PER (UTC) (F) (DEG/KT/KT) (MB) (FT/S) (FT/S) CHESAPEAKE LIGHT NOT AVBL 64 E VA BEACH 1050 42 58 330/ 23/ 29 1022.2 8/ 7 DUCK 1100 38 53 330/ 19/ 21 1023.6 2 E DUCK NOT AVBL OREGON INLET 1100 320/ 11/ 17 1023.9 13E OREGON INLT NOT AVBL HATTERAS CG 1100 42 56 340/ 20/ 24 1023.2 DIAMOND BUOY 1050 46 75 350/ 21/ 27 1022.6 6/ 6 2/17 CAPE LOOKOUT 1100 39 340/ 18/ 21 1024.3 BEAUFORT LAB 1100 39 54 350/ 12/ 19 1023.9 30 SE NEW RVR IN 1108 45 69 360/ 21/ 31 1024.8 30 SE NEW RVR IN NOT AVBL 27 SE WRIGHTSVLE 1108 46 69 10/ 19/ 27 1024.8 5 SE WRIGHTSVLE 1108 40 61 360/ 17/ 37 1024.7 225 S CAPE HAT 1050 63 74 350/ 17/ 21 1019.9 7/ 7 2/10 41 SE CHARLESTON 1050 53 73 360/ 19/ 25 1024.5 5/ 5 2/12 $$

USA.gov is the U.S. government's official web portal to all federal, state and local government web resources and services.